Location: Dodge City Community College Clyde Tombaugh Astronomy Center
(37.7756°N, 100.0412°W)
Time: 06:19:33
(UTC+00:00)

N. Korean satellite - Pass Details

Date: 12 December 2022
Orbit: 408 x 444 km, 97.3° (Epoch: 27 January)

Event Time Altitude Azimuth Distance (km) Brightness Sun altitude
Rises 12:10:05 0° 6° (N) 2,471 10.1 -18.4°
Reaches altitude 10° 12:12:10 10° 2° (N) 1,584 9.0 -18.0°
Maximum altitude 12:15:30 55° 285° (WNW) 538 6.4 -17.4°
Drops below altitude 10° 12:18:44 10° 206° (SSW) 1,539 9.0 -16.8°
Sets 12:20:44 0° 202° (SSW) 2,391 10.0 -16.4°
